EHI
0 0 0 0 0 0 0 0 0 0 0 0 0 0 0 0 0 0 0 0 0 0 0 0 0 0 0 0 0 0 0 0 0 0 0 0 0 0 0 0 0 0 0
0 0 0 0 0 0 0 0 0 0 0 0 0 0 0 0 0 0 0 0 0 0 0 0 0 0 0 0 0 0 0 0 0 0 0 0 0 0 0 0 0 0 0
0 0 0 0 0 0 0 0 0 0 0 0 0 0 0 0 0 0 0 0 0 0 0 0 0 0 0 0 0 0 0 0 0 0 0 0 0 0 0 0 0 0 0
0 0 0 0 0 0 0 0 0 0 0 0 0 0 0 0 0 0 0 0 0 0 0 0 0 0 0 0 0 0 0 0 0 0 0 0 0 0 0 0 0 0 0
0 0 0 0 0 0 0 0 0 0 0 0 0 0 0 0 0 0 0 0 0 0 0 0 0 0 0 0 0 0 0 0 0 0 0 0 0 0 0 0 0 0 0
0 0 0 0 0 0 0 0 0 0 0 0 0 0 0 0 0 0 0 0 0 0 0 0 0 0 0 0 0 0 0 0 0 0 0 0 0 0 0 0 0 0 0
0 0 0 0 0 0 0 0 0 0 0 0 0 0 0 0 0 0 0 0 0 0 0 0 0 0 0 0 0 0 0 0 0 0 0 0 0 0 0 0 0 0 0
0 0 0 0 0 0 0 0 0 0 0 0 0 0 0 0 0 0 0 0 0 0 0 0 0 0 0 0 0 0 0 0 0 0 0 0 0 0 0 0 0 0 0
0 0 0 0 0 0 0 0 0 0 0 0 0 0 0 0 0 0 0 0 0 0 0 0 0 0 0 0 0 0 0 0 0 0 0 0 0 0 0 0 0 0 0
0 0 0 0 0 0 0 0 0 0 0 0 0 0 0 0 0 0 0 0 0 0 0 0 0 0 0 0 0 0 0 0 0 0 0 0 0 0 0 0 0 0 0
0 0 0 0 0 0 0 0 0 0 0 0 0 0 0 0 0 0 0 0 0 0 0 0 0 0 0 0 0 0 0 0 0 0 0 0 0 0 0 0 0 0 0
0 0 0 0 0 0 0 0 0 0 0 0 0 0 0 0 0 0 0 0 0 0 0 0 0 0 0 0 0 0 0 0 0 0 0 0 0 0 0 0 0 0 0
0 0 0 0 0 0 0 0 0 0 0 0 0 0 0 0 0 0 0 0 0 0 0 0 0 0 0 0 0 0 0 0 0 0 0 0 0 0 0 0 0 0 0
0 0 0 0 0 0 0 0 0 0 0 0 0 0 0 0 0 0 0 0 0 0 0 0 0 0 0 0 0 0 0 0 0 0 0 0 0 0 0 0 0 0 0
0 0 0 0 0 0 0 0 0 0 0 0 0 0 0 0 0 0 0 0 0 0 0 0 0 0 0 0 0 0 0 0 0 0 0 0 0 0 0 0 0 0 0
0 0 0 0 0 0 0 0 0 0 0 0 0 0 0 0 0 0 0 0 0 0 0 0 0 0 0 0 0 0 0 0 0 0 0 0 0 0 0 0 0 0 0
0 0 0 0 0 0 0 0 0 0 0 0 0 0 0 0 0 0 0 0 0 0 0 0 0 0 0 0 0 0 0 0 0 0 0 0 0 0 0 0 0 0 0
0 0 0 0 0 0 0 0 0 0 0 0 0 0 0 0 0 0 0 0 0 0 0 0 0 0 0 0 0 0 0 0 0 0 0 0 0 0 0 0 0 0 0
0 0 0 0 0 0 0 0 0 0 0 0 0 0 0 0 0 0 0 0 0 0 0 0 0 0 0 0 0 0 0 0 0 0 0 0 0 0 0 0 0 0 0
0 0 0 0 0 0 0 0 0 0 0 0 0 0 0 0 0 0 0 0 0 0 0 0 0 0 0 0 0 0 0 0 0 0 0 0 0 0 0 0 0 0 0
0 0 0 0 0 0 0 0 0 0 0 0 0 0 0 0 0 0 0 0 0 0 0 0 0 0 0 0 0 0 0 0 0 0 0 0 0 0 0 0 0 0 0
0 0 0 0 0 0 0 0 0 0 0 0 0 0 0 0 0 0 0 0 0 0 0 0 0 0 0 0 0 0 0 0 0 0 0 0 0 0 0 0 0 0 0
0 0 0 0 0 0 0 0 0 0 0 0 0 0 0 0 0 0 0 0 0 0 0 0 0 0 0 0 0 0 0 0 0 0 0 0 0 0 0 0 0 0 0
0 0 0 0 0 0 0 0 0 0 0 0 0 0 0 0 0 0 0 0 0 0 0 0 0 0 0 0 0 0 0 0 0 0 0 0 0 0 0 0 0 0 0
0 0 0 0 0 0 0 0 0 0 0 0 0 0 0 0 0 0 0 0 0 0 0 0 0 0 0 0 0 0 0 0 0 0 0 0 0 0 0 0 0 0 0
0 0 0 0 0 0 0 0 0 0 0 0 0 0 0 0 0 0 0 0 0 0 0 0 0 0 0 0 0 0 0 0 0 0 0 0 0 0 0 0 0 0 0
Wind_Speed
15 15 15 14 13 13 12 12 11 10 10 10 10 10 10 9 8 7 7 6 6 5 5 5 5 5 5 5 4 4 4 5 7 7 6 6 8 10 10 10 11 11 10
14 14 14 13 13 13 12 11 10 10 9 9 9 9 9 8 8 7 7 6 6 6 5 5 5 4 5 5 5 5 5 5 8 9 8 9 10 10 10 11 11 9 10
13 13 13 13 12 12 11 10 10 9 9 9 9 9 8 7 7 7 6 6 6 6 6 6 5 6 6 5 6 6 6 6 6 8 9 8 9 9 10 10 11 9 10
12 12 12 12 11 10 10 10 9 9 9 8 8 8 7 7 7 7 6 6 6 5 5 6 6 7 7 8 6 6 7 8 8 8 8 9 9 9 9 9 9 8 9
11 11 11 10 10 10 10 9 9 8 8 7 7 7 6 6 8 9 7 6 6 6 6 6 6 5 6 7 8 9 9 8 8 8 9 9 9 9 9 8 9 9 10
10 11 10 10 9 9 9 8 8 8 7 7 7 6 7 7 7 8 9 7 6 6 7 7 6 3 3 6 8 9 11 11 11 10 9 10 11 11 9 8 9 9 9
9 10 9 9 9 8 8 8 7 7 6 6 6 6 6 7 5 6 8 9 7 6 7 7 7 6 6 7 7 10 12 13 13 11 11 12 12 10 10 10 9 10 10
9 9 9 8 8 7 7 7 6 5 5 5 5 5 5 7 6 7 11 9 6 6 6 7 7 8 7 9 12 12 11 8 7 8 9 11 11 10 10 10 11 11 11
8 8 7 7 7 6 6 6 5 5 4 4 5 6 5 6 7 8 12 8 6 7 6 6 6 7 7 9 11 11 11 9 6 8 11 13 14 14 11 9 9 8 8
7 7 7 6 6 6 5 5 4 4 4 4 5 5 6 6 6 6 11 8 7 7 6 4 0 4 8 9 11 11 11 10 10 9 8 10 11 11 13 11 8 8 8
6 6 6 5 4 4 4 3 3 4 4 4 5 4 4 5 4 3 7 8 9 9 7 6 5 5 10 11 11 10 10 11 12 10 8 7 6 5 5 6 6 7 7
5 5 4 3 3 3 3 3 3 4 3 2 3 3 2 2 4 3 4 6 8 9 7 7 7 11 14 14 11 8 11 12 8 7 7 6 6 5 5 6 6 7 7
3 4 3 3 2 2 3 2 2 2 4 4 4 4 4 4 2 3 6 8 9 8 7 8 11 13 14 10 7 10 11 7 6 7 7 7 7 6 7 6 6 6 6
3 2 2 1 2 2 2 3 4 5 5 5 5 5 5 4 6 8 8 6 5 6 7 8 9 11 10 7 7 5 5 6 7 7 7 7 7 6 5 6 6 6 5
2 1 1 1 2 1 2 5 5 7 7 7 7 7 7 7 8 10 9 9 9 9 11 7 6 6 6 6 7 7 6 6 7 7 7 8 7 7 6 6 5 6 5
1 0 1 1 1 1 1 5 6 5 4 2 3 6 5 6 8 10 10 10 11 12 10 6 7 7 8 8 8 8 8 8 9 9 8 8 8 8 7 6 6 6 6
1 2 2 2 1 0 2 2 3 5 4 3 1 2 5 7 7 9 10 12 11 11 5 6 7 7 8 8 8 8 9 9 9 9 8 9 9 9 8 7 7 7 7
1 0 2 1 1 2 2 2 2 2 2 3 5 2 2 4 5 8 11 10 3 3 6 6 7 7 8 8 8 9 9 9 9 9 9 9 9 9 8 8 7 9 7
2 1 1 2 1 2 2 2 2 3 3 3 3 4 1 3 6 7 8 5 6 7 7 7 7 8 8 9 9 9 9 8 9 9 9 9 9 9 9 8 7 6 6
1 3 2 1 1 2 2 2 2 2 3 3 4 5 4 3 3 4 5 6 7 7 8 8 7 8 8 9 9 9 9 9 9 9 9 9 9 9 9 10 9 8 7
2 5 4 3 1 2 2 2 2 3 3 3 4 5 6 5 5 6 6 6 7 7 8 8 8 8 8 9 9 10 11 10 10 10 10 9 9 9 8 9 9 9 8
0 1 2 2 2 3 2 2 2 3 3 3 3 3 2 3 4 5 6 6 7 7 7 7 8 8 8 9 9 10 10 11 11 10 10 10 9 8 8 9 9 9 10
1 2 2 2 3 3 1 2 3 3 3 3 3 3 3 4 5 6 6 6 7 7 7 7 7 8 9 8 8 9 10 11 11 11 10 10 9 8 8 9 10 10 9
2 2 3 3 2 2 2 3 2 3 3 3 3 3 4 4 5 6 6 6 6 6 7 7 7 10 13 11 9 10 11 11 12 10 12 10 9 8 8 8 9 11 10
3 3 3 2 2 2 2 2 2 2 2 2 2 3 4 5 5 6 6 6 6 7 8 8 7 9 13 14 14 13 12 12 10 11 12 9 9 10 10 9 8 9 9
3 3 2 2 2 2 2 2 2 2 2 2 3 3 4 5 5 6 6 6 6 6 7 7 10 11 14 12 14 13 12 13 13 13 12 8 8 9 10 8 10 9 9
Wind_Direction
73 74 76 76 76 78 78 79 78 76 74 74 72 70 68 64 59 56 53 47 45 41 28 22 11 355 342 327 320 312 309 311 304 304 306 306 300 294 300 297 292 286 280
79 80 80 81 81 81 81 80 80 78 76 77 77 73 69 66 59 55 50 41 35 30 20 7 354 341 327 314 321 315 315 314 298 304 306 303 302 298 296 295 291 291 294
86 86 85 85 85 86 87 88 87 87 84 81 80 77 71 66 61 54 46 38 28 19 7 355 343 334 323 329 314 313 308 302 300 298 299 305 299 301 302 294 297 297 294
89 88 87 87 88 89 89 87 85 84 83 79 74 71 64 55 48 41 35 27 18 11 359 345 339 340 338 330 313 312 311 307 299 293 296 301 300 306 303 303 306 310 310
91 90 90 91 91 90 89 89 88 85 82 77 71 67 60 54 36 15 5 11 2 355 350 342 345 344 338 326 322 325 316 307 303 300 302 303 308 315 311 315 310 312 307
95 94 94 95 95 94 93 91 85 79 71 65 59 54 48 50 41 8 342 346 347 346 344 339 324 284 323 279 273 286 295 296 305 306 303 303 303 306 313 313 312 309 306
99 98 98 96 93 92 90 85 78 72 64 55 47 41 46 63 37 3 341 322 334 345 338 332 327 346 314 323 306 275 266 253 256 278 289 293 302 310 313 309 307 305 302
100 98 96 94 92 89 84 77 70 61 54 45 35 29 32 63 39 4 334 305 332 336 332 329 327 329 358 343 319 309 307 302 279 269 283 292 299 306 304 296 292 290 288
100 99 96 92 90 84 77 70 60 52 45 32 36 23 19 62 46 5 336 320 339 336 332 334 331 334 26 339 310 307 312 315 289 265 273 277 280 278 278 284 287 292 304
99 97 93 86 79 74 69 58 53 39 30 15 31 22 15 33 60 9 339 325 341 335 332 332 102 337 338 318 308 308 312 319 320 310 282 267 264 258 239 250 278 296 308
102 101 93 87 81 72 64 45 25 18 24 13 14 19 28 30 81 44 344 330 339 331 331 338 11 356 322 310 296 291 302 307 304 302 303 300 293 283 261 251 263 282 299
106 103 94 80 65 72 48 30 17 353 344 7 15 9 31 69 41 36 315 305 307 314 324 339 348 332 315 303 295 300 300 293 290 300 306 309 310 316 319 310 297 285 277
114 98 91 87 77 44 6 3 356 348 349 6 12 12 17 20 85 214 263 272 272 295 323 321 304 298 298 293 273 283 289 292 308 315 318 320 322 323 315 305 300 294 289
111 101 92 94 105 72 352 3 6 8 11 10 12 9 11 16 19 5 346 333 309 305 324 311 286 276 276 299 309 305 310 324 325 322 323 322 322 324 319 326 331 334 341
126 112 57 65 65 49 52 34 14 45 31 1 5 2 7 10 14 345 326 334 336 336 323 316 341 351 353 357 355 351 342 339 338 337 336 335 339 341 340 343 340 340 356
181 123 350 22 50 339 105 125 83 58 89 60 9 345 10 22 342 328 323 314 306 304 308 345 357 357 358 357 352 349 349 351 348 343 345 346 345 348 350 350 354 358 10
345 347 329 341 1 15 27 43 126 144 171 184 195 354 348 344 332 328 323 314 293 292 321 1 357 354 352 351 350 348 348 351 346 343 347 349 348 350 354 356 4 5 12
294 118 288 339 9 40 47 36 38 56 120 144 163 161 324 317 313 317 315 311 325 337 4 0 357 354 351 350 351 349 346 348 351 348 353 353 351 352 357 0 8 8 6
311 23 30 30 61 69 66 53 49 47 44 43 63 121 212 257 246 267 299 348 6 6 5 1 357 353 351 348 349 349 347 349 353 350 357 355 353 352 357 1 9 12 357
123 59 327 294 108 90 77 53 48 47 45 43 42 27 8 353 10 15 8 8 4 6 2 356 352 351 351 350 350 352 352 355 357 357 359 356 355 354 356 3 7 7 11
143 137 193 239 74 59 60 55 47 43 45 52 59 51 338 337 12 11 9 8 7 3 359 348 344 354 358 356 358 354 354 359 3 0 357 354 354 356 358 6 10 10 9
226 154 156 86 86 67 47 63 63 62 54 51 70 107 258 321 11 9 12 10 6 1 358 349 346 358 2 357 353 349 354 360 360 356 348 346 351 359 4 8 11 14 13
155 128 113 104 100 116 181 78 73 70 62 52 51 37 28 16 12 13 11 8 4 3 1 357 354 3 3 356 349 348 356 355 344 338 335 340 351 1 8 9 10 13 24
116 117 110 115 112 112 96 90 84 76 69 60 50 37 25 15 13 15 9 9 5 7 6 6 6 6 4 4 358 3 10 348 330 324 329 335 353 3 4 6 10 12 13
126 120 118 113 114 112 102 94 84 76 72 62 45 24 20 18 17 19 16 12 9 15 13 14 9 10 7 11 11 6 352 332 325 324 319 334 2 6 358 3 9 12 14
120 122 123 117 116 111 105 99 89 81 76 60 39 26 18 19 22 21 20 16 9 18 16 15 11 18 14 10 9 359 345 338 335 326 316 337 5 13 355 356 5 10 14